TimeMDT,TemperatureF,Dew PointF,Humidity,Sea Level PressureIn,VisibilityMPH,Wind Direction,Wind SpeedMPH,Gust SpeedMPH,PrecipitationIn,Events,Conditions,WindDirDegrees,DateUTC
12:15 AM,72.0,61.7,70,30.19,10.0,South,6.9,-,N/A,,Clear,170,2013-07-26 06:15:00
12:35 AM,72.0,61.7,70,30.19,10.0,SSE,3.5,-,N/A,,Clear,160,2013-07-26 06:35:00
12:55 AM,71.2,61.3,71,30.20,10.0,West,3.5,-,N/A,,Clear,280,2013-07-26 06:55:00
1:15 AM,71.4,61.3,70,30.21,10.0,Calm,Calm,-,N/A,,Scattered Clouds,0,2013-07-26 07:15:00
1:35 AM,70.7,61.0,71,30.21,10.0,Calm,Calm,-,N/A,,Mostly Cloudy,0,2013-07-26 07:35:00
1:55 AM,70.7,61.2,72,30.21,10.0,Calm,Calm,-,N/A,,Scattered Clouds,0,2013-07-26 07:55:00
2:15 AM,70.7,61.0,71,30.23,10.0,North,3.5,-,N/A,,Scattered Clouds,350,2013-07-26 08:15:00
2:35 AM,71.4,61.3,70,30.24,10.0,North,4.6,-,N/A,,Mostly Cloudy,360,2013-07-26 08:35:00
2:55 AM,70.7,61.5,73,30.24,10.0,WNW,6.9,-,N/A,,Scattered Clouds,290,2013-07-26 08:55:00
3:15 AM,72.3,61.0,67,30.24,10.0,WNW,6.9,-,N/A,,Mostly Cloudy,290,2013-07-26 09:15:00
3:35 AM,73.2,59.9,63,30.24,10.0,North,6.9,-,N/A,,Mostly Cloudy,350,2013-07-26 09:35:00
3:55 AM,73.6,59.0,60,30.24,10.0,North,8.1,-,N/A,,Mostly Cloudy,350,2013-07-26 09:55:00
4:15 AM,73.4,58.1,59,30.24,10.0,NNW,6.9,-,N/A,,Scattered Clouds,340,2013-07-26 10:15:00
4:35 AM,73.0,57.7,59,30.25,10.0,North,6.9,-,N/A,,Scattered Clouds,350,2013-07-26 10:35:00
4:55 AM,73.4,58.1,59,30.25,10.0,NNW,6.9,-,N/A,,Scattered Clouds,340,2013-07-26 10:55:00
5:15 AM,72.7,58.1,60,30.26,10.0,NNW,5.8,-,N/A,,Clear,330,2013-07-26 11:15:00
5:35 AM,72.0,58.1,62,30.26,10.0,NNW,3.5,-,N/A,,Clear,340,2013-07-26 11:35:00
5:55 AM,71.8,58.1,62,30.26,10.0,NNW,3.5,-,N/A,,Clear,340,2013-07-26 11:55:00
6:15 AM,71.2,58.1,63,30.25,10.0,West,4.6,-,N/A,,Clear,260,2013-07-26 12:15:00
6:35 AM,71.2,57.9,63,30.26,10.0,WNW,4.6,-,N/A,,Scattered Clouds,290,2013-07-26 12:35:00
6:55 AM,72.0,58.1,62,30.25,10.0,Calm,Calm,-,N/A,,Scattered Clouds,0,2013-07-26 12:55:00
7:15 AM,73.9,58.3,58,30.27,10.0,North,3.5,-,N/A,,Clear,360,2013-07-26 13:15:00
7:35 AM,74.5,59.2,59,30.27,10.0,North,5.8,-,N/A,,Clear,360,2013-07-26 13:35:00
7:55 AM,75.9,58.1,54,30.28,10.0,North,6.9,-,N/A,,Clear,360,2013-07-26 13:55:00
8:15 AM,77.2,58.5,52,30.28,10.0,NNE,8.1,-,N/A,,Clear,20,2013-07-26 14:15:00
8:35 AM,78.1,59.7,53,30.28,10.0,North,8.1,-,N/A,,Clear,10,2013-07-26 14:35:00
8:55 AM,78.3,59.7,53,30.29,10.0,North,8.1,-,N/A,,Clear,350,2013-07-26 14:55:00
9:15 AM,78.4,59.5,52,30.29,10.0,North,6.9,-,N/A,,Clear,360,2013-07-26 15:15:00
9:35 AM,79.3,58.8,49,30.29,10.0,North,8.1,-,N/A,,Clear,10,2013-07-26 15:35:00
9:55 AM,81.0,57.6,45,30.29,10.0,NNE,6.9,-,N/A,,Clear,30,2013-07-26 15:55:00
10:15 AM,81.7,58.3,45,30.29,10.0,North,10.4,-,N/A,,Clear,350,2013-07-26 16:15:00
10:35 AM,81.7,57.6,44,30.29,10.0,NE,6.9,-,N/A,,Clear,40,2013-07-26 16:35:00
10:55 AM,83.1,57.7,42,30.28,10.0,NNE,6.9,-,N/A,,Clear,20,2013-07-26 16:55:00
11:15 AM,85.3,56.5,37,30.28,10.0,North,8.1,-,N/A,,Clear,350,2013-07-26 17:15:00
11:35 AM,86.4,55.4,35,30.28,10.0,NNE,8.1,-,N/A,,Clear,30,2013-07-26 17:35:00
11:55 AM,87.1,54.5,33,30.27,10.0,ENE,5.8,-,N/A,,Clear,70,2013-07-26 17:55:00
12:15 PM,89.1,53.6,30,30.26,10.0,East,10.4,-,N/A,,Clear,90,2013-07-26 18:15:00
12:35 PM,88.5,52.9,29,30.25,10.0,East,3.5,-,N/A,,Clear,90,2013-07-26 18:35:00
12:55 PM,88.9,52.0,28,30.25,10.0,North,5.8,-,N/A,,Clear,10,2013-07-26 18:55:00
1:15 PM,89.6,52.0,28,30.23,10.0,East,4.6,17.3,N/A,,Clear,80,2013-07-26 19:15:00
1:35 PM,90.9,51.8,26,30.22,10.0,East,6.9,-,N/A,,Clear,80,2013-07-26 19:35:00
1:55 PM,90.7,51.8,26,30.22,10.0,ESE,4.6,-,N/A,,Clear,120,2013-07-26 19:55:00
2:15 PM,90.7,51.3,26,30.21,10.0,South,5.8,-,N/A,,Scattered Clouds,170,2013-07-26 20:15:00
2:35 PM,91.0,51.1,25,30.21,10.0,SE,6.9,-,N/A,,Scattered Clouds,130,2013-07-26 20:35:00
2:55 PM,90.5,50.9,26,30.19,10.0,North,3.5,-,N/A,,Scattered Clouds,360,2013-07-26 20:55:00
3:15 PM,91.6,51.4,25,30.18,10.0,North,3.5,-,N/A,,Clear,10,2013-07-26 21:15:00
3:35 PM,91.6,51.1,25,30.18,10.0,SE,8.1,-,N/A,,Mostly Cloudy,130,2013-07-26 21:35:00
3:55 PM,90.0,50.9,26,30.18,10.0,SE,4.6,-,N/A,,Scattered Clouds,130,2013-07-26 21:55:00
4:15 PM,90.7,50.4,25,30.17,10.0,Calm,Calm,-,N/A,,Clear,0,2013-07-26 22:15:00
4:35 PM,90.7,51.1,26,30.16,10.0,ESE,8.1,-,N/A,,Scattered Clouds,110,2013-07-26 22:35:00
4:55 PM,90.3,51.3,26,30.17,10.0,East,3.5,-,N/A,,Mostly Cloudy,100,2013-07-26 22:55:00
5:15 PM,90.0,51.4,27,30.19,10.0,East,5.8,-,N/A,,Mostly Cloudy,90,2013-07-26 23:15:00
5:35 PM,86.5,56.1,35,30.19,10.0,SSE,20.7,32.2,N/A,,Overcast,160,2013-07-26 23:35:00
5:55 PM,82.6,56.3,40,30.19,10.0,SSE,13.8,19.6,N/A,,Mostly Cloudy,160,2013-07-26 23:55:00
6:15 PM,83.3,53.6,36,30.19,10.0,South,15.0,18.4,N/A,Thunderstorm,Scattered Clouds,170,2013-07-27 00:15:00
6:35 PM,82.4,55.9,40,30.17,10.0,South,11.5,-,N/A,,Scattered Clouds,190,2013-07-27 00:35:00
6:55 PM,82.8,55.9,40,30.17,10.0,South,5.8,-,N/A,,Scattered Clouds,190,2013-07-27 00:55:00
7:15 PM,82.4,55.4,39,30.19,10.0,Calm,Calm,-,N/A,,Scattered Clouds,0,2013-07-27 01:15:00
7:35 PM,81.9,56.5,42,30.19,10.0,SE,5.8,-,N/A,,Scattered Clouds,140,2013-07-27 01:35:00
7:55 PM,81.5,57.2,43,30.20,10.0,Calm,Calm,-,N/A,,Scattered Clouds,0,2013-07-27 01:55:00
8:15 PM,81.3,55.4,41,30.20,10.0,Calm,Calm,-,N/A,Thunderstorm,Mostly Cloudy,0,2013-07-27 02:15:00
8:35 PM,77.7,59.5,53,30.22,10.0,ENE,6.9,-,N/A,Rain-Thunderstorm,Light Thunderstorms and Rain,60,2013-07-27 02:35:00
8:55 PM,75.7,58.8,56,30.23,10.0,SE,9.2,16.1,N/A,Thunderstorm,Thunderstorm,140,2013-07-27 02:55:00
9:15 PM,73.4,61.2,65,30.27,7.0,North,8.1,-,N/A,Rain-Thunderstorm,Light Thunderstorms and Rain,350,2013-07-27 03:15:00
9:35 PM,68.9,61.5,77,30.28,10.0,North,11.5,18.4,N/A,Rain-Thunderstorm,Rain,350,2013-07-27 03:35:00
9:55 PM,65.3,62.2,90,30.33,5.0,North,24.2,40.3,0.01,Rain-Thunderstorm,Rain,360,2013-07-27 03:55:00
10:15 PM,63.5,61.3,93,30.35,5.0,North,21.9,33.4,0.03,Rain-Thunderstorm,Thunderstorms and Rain,350,2013-07-27 04:15:00
10:35 PM,63.3,61.7,94,30.36,5.0,NNW,15.0,26.5,0.07,Rain,Heavy Rain,340,2013-07-27 04:35:00
10:55 PM,63.3,61.7,94,30.37,7.0,NNW,12.7,-,0.10,Rain-Thunderstorm,Rain,340,2013-07-27 04:55:00
11:15 PM,63.0,61.5,95,30.39,7.0,North,13.8,-,0.04,Rain,Rain,360,2013-07-27 05:15:00
11:35 PM,63.5,61.9,94,30.39,5.0,North,6.9,-,0.13,Rain,Heavy Rain,360,2013-07-27 05:35:00
11:55 PM,63.1,61.7,95,30.39,7.0,NNW,8.1,-,0.18,Rain,Rain,330,2013-07-27 05:55:00